CW2434 Weather Reports


time (UTC)temp
F
wind
direction
speed
knots
gust
knots
rain 1hr
in
rain 24hr
in
rain mn
in
humidity
%
barometer
mb
20260504081553 42 196 0.9 2.6 0.00 0.00 0.00 65 1011.9
20260504050123 43 63 1.7 3.5 0.00 0.00 0.00 64 1011.2
20260504044550 43 63 0.0 2.6 0.00 0.00 0.00 64 1011.3
20260504043051 43 63 1.7 2.6 0.00 0.00 0.00 63 1011.2
20260504041549 43 63 0.9 2.6 0.00 0.00 0.00 60 1011.3
20260504040055 43 63 0.9 2.6 0.00 0.00 0.00 63 1011.2
20260504034559 43 63 0.9 2.6 0.00 0.00 0.00 63 1011.2
20260504033059 43 63 0.9 2.6 0.00 0.00 0.00 62 1011.1
20260504031606 43 63 0.9 3.5 0.00 0.00 0.00 63 1011.1
20260504030114 43 268 0.9 2.6 0.00 0.00 0.00 61 1011.0
20260504024550 44 268 0.9 2.6 0.00 0.00 0.00 60 1011.0
20260504023050 44 268 0.9 2.6 0.00 0.00 0.00 57 1011.1
20260504021553 44 268 1.7 2.6 0.00 0.00 0.00 59 1011.0
20260504020048 45 268 1.7 2.6 0.00 0.00 0.00 56 1010.9
20260504014551 45 0 0.9 1.7 0.00 0.00 0.00 53 1011.0
20260504013052 47 0 0.0 0.9 0.00 0.00 0.00 51 1011.0
20260504011551 49 0 0.0 0.0 0.00 0.00 0.00 47 1011.0
20260504010052 50 0 0.0 1.7 0.00 0.00 0.00 46 1010.7
20260504004552 51 265 0.9 4.3 0.00 0.00 0.00 41 1010.5
20260504003048 51 281 0.9 3.5 0.00 0.00 0.00 41 1010.3
20260504001552 52 292 0.9 5.2 0.00 0.00 0.00 39 1010.2
20260504000131 52 267 2.6 6.1 0.00 0.00 0.00 37 1009.9
20260503234556 53 294 1.7 6.1 0.00 0.00 0.00 35 1009.9
20260503233052 54 315 4.3 10.4 0.00 0.00 0.00 33 1009.8
20260503231552 54 300 3.5 7.8 0.00 0.00 0.00 30 1009.5
20260503230056 54 302 3.5 7.8 0.00 0.00 0.00 31 1009.4
20260503224554 54 284 3.5 7.0 0.00 0.00 0.00 29 1009.4
20260503223056 55 332 4.3 10.4 0.00 0.00 0.00 31 1009.3
20260503221552 57 315 7.0 12.2 0.00 0.00 0.00 29 1009.2
20260503220054 57 274 6.1 10.4 0.00 0.00 0.00 28 1009.3
20260503214551 56 298 5.2 11.3 0.00 0.00 0.00 29 1009.2
20260503213052 56 261 7.8 13.9 0.00 0.00 0.00 29 1009.0
20260503211552 56 274 3.5 13.0 0.00 0.00 0.00 31 1009.0
20260503210051 56 303 6.1 13.0 0.00 0.00 0.00 32 1009.0
20260503204554 55 328 5.2 13.9 0.00 0.00 0.00 32 1009.0
20260503203101 55 304 7.0 13.9 0.00 0.00 0.00 31 1009.1
20260503201556 55 332 5.2 13.9 0.00 0.00 0.00 35 1009.2
20260503200053 53 35 4.3 12.2 0.00 0.00 0.00 36 1009.3
20260503194554 52 310 6.1 13.9 0.00 0.00 0.00 37 1009.6
20260503193053 53 309 7.0 14.8 0.00 0.00 0.00 38 1009.7
20260503191555 51 302 4.3 11.3 0.00 0.00 0.00 38 1009.9
20260503190050 51 294 7.8 14.8 0.00 0.00 0.00 37 1009.9
20260503184611 51 338 7.8 23.5 0.00 0.00 0.00 38 1010.1
20260503183057 50 304 8.7 14.8 0.00 0.00 0.00 38 1010.3
20260503181554 50 299 9.6 17.4 0.00 0.00 0.00 42 1010.3
20260503180057 49 325 8.7 18.2 0.00 0.00 0.00 40 1010.2
20260503174551 50 290 6.1 21.7 0.00 0.00 0.00 39 1010.2
20260503173052 50 298 8.7 18.2 0.00 0.00 0.00 40 1010.3
20260503171610 50 318 10.4 23.5 0.00 0.00 0.00 42 1010.4
20260503170106 50 350 7.8 19.1 0.00 0.00 0.00 40 1010.2